Location: Navajo
(48.7922°N, 105.0603°W)
Time: 04:56:17
(UTC+00:00)

ITUPSAT 1 - Pass Details

Date: 30 June 2022
Orbit: 701 x 711 km, 98.6° (Epoch: 07 August)

Event Time Altitude Azimuth Distance (km) Brightness Sun altitude
Rises 03:37:08 0° 14° (NNE) 3,111 ? -4.6°
Reaches altitude 10° 03:39:24 10° 14° (NNE) 2,189 ? -4.8°
Maximum altitude 03:44:12 89° 291° (WNW) 715 ? -5.4°
Drops below altitude 10° 03:49:00 10° 197° (SSW) 2,178 ? -5.9°
Sets 03:51:15 0° 197° (SSW) 3,094 ? -6.2°
